2010 RY182

Initial reported observation by Palomar Mountain--ZTF on 2010-09-13.
(Discoverer will be defined when the object is numbered. See this note on how discoverers are determined.)

Orbit

Orbit type: Main Belt

Note: WebGL enabled browser required.

epoch2022-01-21.0
epoch JD2459600.5
perihelion date2021-05-10.14191
perihelion JD2459344.64191
argument of perihelion (°)349.46012
ascending node (°)357.89521
inclination (°)19.43224
eccentricity0.2784048
perihelion distance (AU)2.2357913
Tisserand w.r.t. Jupiter3.1
ΔV w.r.t. Earth (km/sec)11.1
semimajor axis (AU)3.0984012
mean anomaly (°)46.23773
mean daily motion (°/day)0.18071630
aphelion distance (AU)3.961
period (years)5.45
P-vector [x]0.97612908
P-vector [y]-0.16707979
P-vector [z]-0.13876729
Q-vector [x]0.21684722
Q-vector [y]0.71377804
Q-vector [z]0.66595660
absolute magnitude17.58
phase slope0.15
uncertainty1
referenceMPEC 2021-W85
observations used39
oppositions2
arc length (days)4100
first opposition used2010
last opposition used2021
residual rms (arc-secs)1.00
perturbers coarse indicatorM-v
perturbers precise indicator003Ek
first observation date used2010-09-07.0
last observation date used2021-11-28.0
computer nameMPCLINUX
Minimum Orbit Intersection Distances (in AU)
for orbit epoch: 2459600.5, reference: E2021-W85
Mercury1.85286
Venus1.50851
Earth1.23321
Mars0.8514
Jupiter1.47608
Saturn5.45473
Uranus14.4483
Neptune26.6893

Observations

39 total observations over interval: 2010 09 07.33852 – 2021 11 28.434411
These data are available for download (format description).

Date (UT) J2000 RA J2000 Dec Magn Location Ref
2010 09 07.33852 01 51 11.80 +20 19 51.3 20.6 r I41 – Palomar Mountain--ZTF MPS 453816
2010 09 07.38420 01 51 10.71 +20 20 21.5 21.1 r I41 – Palomar Mountain--ZTF MPS 453816
2010 09 08.33797 01 50 48.69 +20 30 50.1 20.7 r I41 – Palomar Mountain--ZTF MPS 453816
2010 09 08.39069 01 50 47.34 +20 31 25.0 20.7 r I41 – Palomar Mountain--ZTF MPS 453816
2010 09 10.34475 01 49 56.27 +20 52 29.4 20.6 r I41 – Palomar Mountain--ZTF MPS 453816
2010 09 10.38940 01 49 54.93 +20 52 58.1 21.1 r I41 – Palomar Mountain--ZTF MPS 453816
2010 09 12.34491 01 48 55.96 +21 13 32.7 20.9 r I41 – Palomar Mountain--ZTF MPS 453816
2010 09 12.38782 01 48 54.49 +21 14 00.2 20.9 r I41 – Palomar Mountain--ZTF MPS 453816
2010 09 13.34286 01 48 22.94 +21 23 51.1 21.0 r I41 – Palomar Mountain--ZTF MPS 439638
2010 09 13.38660 01 48 21.35 +21 24 17.9 20.8 r I41 – Palomar Mountain--ZTF MPS 439638
2010 09 14.34361 01 47 47.83 +21 34 01.4 20.7 r I41 – Palomar Mountain--ZTF MPS 439638
2010 09 14.38683 01 47 46.19 +21 34 27.8 21.1 r I41 – Palomar Mountain--ZTF MPS 439638
2021 09 03.435700 02 43 38.54 +28 04 42.8 21.56 G G96 – Mt. Lemmon Survey MPS 1471830
2021 09 03.440879 02 43 38.64 +28 04 46.2 21.34 G G96 – Mt. Lemmon Survey MPS 1471830
2021 09 03.446040 02 43 38.67 +28 04 50.8 21.27 G G96 – Mt. Lemmon Survey MPS 1471830
2021 09 03.451186 02 43 38.69 +28 04 54.2 21.08 G G96 – Mt. Lemmon Survey MPS 1471830
2021 09 15.440933 02 43 44.63 +30 33 52.6 20.83 G G96 – Mt. Lemmon Survey MPS 1471830
2021 09 15.446264 02 43 44.53 +30 33 56.2 21.68 G G96 – Mt. Lemmon Survey MPS 1471830
2021 09 15.451567 02 43 44.49 +30 33 59.8 21.21 G G96 – Mt. Lemmon Survey MPS 1471830
2021 09 15.456879 02 43 44.41 +30 34 03.8 21.30 G G96 – Mt. Lemmon Survey MPS 1471830
2021 09 28.60131 02 38 11.244 +32 58 18.28 20.8 w F52 – Pan-STARRS 2, Haleakala MPS 1471830
2021 09 28.61211 02 38 10.819 +32 58 24.58 20.8 w F52 – Pan-STARRS 2, Haleakala MPS 1471830
2021 09 28.62294 02 38 10.357 +32 58 31.14 20.8 w F52 – Pan-STARRS 2, Haleakala MPS 1471830
2021 10 01.59025 02 36 05.611 +33 26 58.70 20.9 w F52 – Pan-STARRS 2, Haleakala MPS 1471830
2021 10 01.60177 02 36 05.068 +33 27 05.03 20.7 w F52 – Pan-STARRS 2, Haleakala MPS 1471830
2021 10 01.61327 02 36 04.533 +33 27 11.23 20.8 w F52 – Pan-STARRS 2, Haleakala MPS 1471830
2021 10 01.62474 02 36 03.978 +33 27 17.45 20.8 w F52 – Pan-STARRS 2, Haleakala MPS 1471830
2021 10 25.407868 02 11 06.31 +35 53 32.2 20.72 G G96 – Mt. Lemmon Survey MPS 1491770
2021 10 25.413058 02 11 05.94 +35 53 33.5 21.30 G G96 – Mt. Lemmon Survey MPS 1491770
2021 10 25.418229 02 11 05.56 +35 53 33.7 21.29 G G96 – Mt. Lemmon Survey MPS 1491770
2021 10 25.423393 02 11 05.18 +35 53 34.3 20.99 G G96 – Mt. Lemmon Survey MPS 1491770
2021 11 04.240308 01 59 08.58 +36 05 19.8 21.16 G G96 – Mt. Lemmon Survey MPS 1495068
2021 11 04.245497 01 59 08.21 +36 05 20.5 21.61 G G96 – Mt. Lemmon Survey MPS 1495068
2021 11 04.250688 01 59 07.83 +36 05 20.0 21.57 G G96 – Mt. Lemmon Survey MPS 1495068
2021 11 04.255878 01 59 07.49 +36 05 19.7 21.43 G G96 – Mt. Lemmon Survey MPS 1495068
2021 11 28.399917 01 37 32.135 +35 05 01.76 21.25 w F52 – Pan-STARRS 2, Haleakala MPS 1517577
2021 11 28.411495 01 37 31.739 +35 04 59.09 21.39 w F52 – Pan-STARRS 2, Haleakala MPS 1517577
2021 11 28.422954 01 37 31.356 +35 04 56.28 21.23 w F52 – Pan-STARRS 2, Haleakala MPS 1517577
2021 11 28.434411 01 37 30.973 +35 04 53.58 21.32 w F52 – Pan-STARRS 2, Haleakala MPS 1517577